Weather in Krasnogvardeyskoe

Russia / Stavropol Krai     45˚50′42″N   41˚30′51″E
temp.,
°C
wind,
m/s
gust,
m/s
humid.,
%
clouds,
%
prec.,
mm/h
press.,
hPa
HPBL,
m
15 january, fri
fri1500:00+2˚ene3672100 0.0 1006242
03:00+1˚ene4773100 0.0 1004359
06:00+1˚ne4775100 0.0 1003568
09:00−1˚nne3497100 4.6 1006237
12:00wnw2293100 0.6 1007270
15:00+1˚wnw6108592 0.7 1008845
18:00−1˚w598891 0.0 1010703
21:00−1˚w599096 0.0 1013385
16 january, sat
sat1600:00−2˚wsw4795100 0.0 1013251
03:00−2˚sw379350 0.0 1014198
06:00−2˚ssw35930 0.0 1013137
09:00w599546 0.9 1016639
12:00wsw577095 0.0 1017747
15:00−1˚w457382 0.0 1016748
18:00−2˚wsw228435 0.0 101832
21:00−2˚n228568 0.0 101869
17 january, sun
sun1700:00−3˚ne3484100 0.0 1017231
03:00−3˚ene5781100 0.0 1015381
06:00−4˚ene61076100 0.0 1013470
09:00−4˚ene71291100 0.4 1011571
12:00−3˚ene81391100 1.9 1009740
15:00−1˚ene81379100 2.1 1007886
18:00−2˚ene91477100 0.0 1008683
21:00−3˚e81394100 1.8 1007614
18 january, mon
mon1800:00−4˚e61094100 3.3 1006593
03:00−5˚ene61094100 9.1 1007503
06:00−6˚ene4796100 5.4 1008394
09:00−6˚ne2396100 7.5 1011223
12:00−5˚nw3494100 0.5 1013347
15:00−5˚w5890100 0.7 1015754
18:00−8˚w5992100 0.1 1018407
21:00−10˚w3693100 0.2 1019147
19 january, tue
tue1900:00−12˚w3796100 0.0 1021149
03:00−13˚w3395100 0.0 102257
06:00−14˚wsw339789 0.0 102334
09:00−12˚wsw239795 0.1 102451
12:00−8˚w2492100 0.0 1023288
15:00−6˚wsw1290100 0.0 1022336
18:00−10˚ssw119586 0.0 102221
21:00−12˚n119779 0.0 102421